map of FTU home
FTU - Airport
Location
City:  Tolagnaro, Madagascar
Name:Maurillac Airport
Old (Alt.):Fort Dauphin Airport
ICAO:FMSD
IATA:FTU

Details
Type:Airport (Aerodrome, Airfield)
Use:Public/Civil, International (customs port of entry)
Latitude:2502'17"S (-25.038055)
Longitude:4657'22"E (46.956111)
Elevation:26 ft (8 m)
Variation:23.94W (WMM2015v2 magnetic declination)
-0.07 annual change
Runways:2
Longest:5906 × 98 ft (1800 × 30 m), paved

Time
Time Zone:UTC+3
Local Time:

Weather
METAR:FMSD 041400Z 08016KT 9999 FEW020 29/23 Q1010
TAF:FMSD 041100Z 0412/0512 08016KT 9999 FEW020 SCT033
BECMG 0418/0421 10006KT

Related Locations
Nearby:
Farthest:KNSI: 11445 mi / 18419 km
San Nicolas Island [San Nicolas Island NOLF Airport], CA, US

Find:

   beyond  
but within

Other Information
Maps:
NOTAMs:
Links:
Sources:

  
  • flag of Madagascar
  

Sectional Chart

Flight Planning
at skyvector.com

Satellite Image

Google Maps Satellite view

 

Copyright © 2004-2019 Karl L. Swartz. All rights reserved.
The Great Circle Mapper name and logo are trademarks of the Great Circle Mapper.
All other trademarks mentioned herein belong to their respective owners.
Please see credits for attibutions and further copyright information.

  Follow gcmap on Facebook Follow gcmap on Twitter GCmap on LinkedIn

hCard Microformat

Geo Microformat